www.pogodaiklimat.ru

Погода и климат >> Архив погоды >> Россия >> Мордовия >> Краснослободск


ПОГОДА в Краснослободске

  • Прогноз погоды в Краснослободске
  • Монитор погоды в Краснослободске
  • Климат города

АРХИВ ПОГОДЫ в Краснослободске

Время (UTC), дата Ветер
(напр.,м/с)
 
Видим.   Явления Облачность Т
(С)
Тd
(С)
f
(%)
Тe
(С)
Тes
(С)
Комфортность P
(гПа)
Po
(гПа)
Тmin
(С)
Tmax
(С)
R
(мм)
R24
(мм)
S
(см)
03 16.04 З 2-2
{2}
20 км ясно +4.0 -2.9 61 +2 +2 1020.1 996.9 +3.9
06 16.04 штиль 0 10 км ясно +9.1 -1.7 47 +9 +18 1020.0 997.2
09 16.04 штиль 0 10 км ясно +15.2 -3.3 28 +15 +31 опасность
простуды
1019.2 996.9
12 16.04 ЮЗ 2-2
{2}
20 км ясно +16.8 -3.6 25 +17 +24 1018.2 996.0
15 16.04 Ю 2-2
{2}
10 км ясно +16.0 -3.3 26 +16 +17 1016.9 994.7 +17.4
18 16.04 штиль 0 10 км ясно +12.1 -2.7 36 +12 +12 1017.6 995.0
21 16.04 Ю 2-2
{2}
10 км ясно +8.1 +0.2 57 +7 +7 1017.6 994.7
00 17.04 Ю 2-2
{2}
10 км ясно +7.5 -2.5 49 +6 +6 1017.2 994.2
03 17.04 Ю 2-2
{2}
4000 м дымка 9/0
[Ac trans]
+5.8 -0.2 65 +4 +4 1017.3 994.2 +5.6
06 17.04 Ю 2-2
{2}
4000 м дымка 9/0
[Cs]
+10.6 +2.7 58 +10 +15 1017.6 994.8
09 17.04 Ю 2-2
{2}
10 км ясно +17.1 +0.6 33 +17 +29 опасность
простуды
1016.7 994.5
12 17.04 Ю 2-2
{2}
10 км ясно +19.1 +1.1 30 +20 +27 1016.0 994.0
15 17.04 Ю 2-2
{2}
10 км 9/0
[Ac trans]
+17.5 +1.1 33 +18 +18 1015.6 993.4 +19.7
18 17.04 ЮЗ 2-2
{2}
10 км 9/0
[Cs]
+13.3 +5.6 60 +13 +13 1016.3 993.8
21 17.04 Ю 2-2
{2}
10 км ясно +11.2 +7.3 77 +10 +10 1016.1 993.5
00 18.04 ЮЗ 2-2
{2}
65 км ясно +9.4 +7.0 85 +8 +8 1015.5 992.8
03 18.04 Ю 2-2
{2}
4000 м дымка 10/10 1000 м
[Sc]
+8.4 +6.4 87 +6 +6 1014.5 991.8 +8.1
06 18.04 Ю 2-2
{2}
4000 м слабая морось 10/10 300 м
[St]
+8.5 +6.8 89 +7 +7 1014.2 991.5
09 18.04 Ю 2-2
{2}
4000 м слабый дождь {морось} 10/10 300 м
[Frnb Ns]
+9.5 +8.5 93 +8 +8 1013.3 990.7
12 18.04 В 2-4
{4}
4000 м дымка {дождь, морось} 9/9 600 м
[Sc]
+11.9 +9.9 88 +11 +12 1010.4 987.9
15 18.04 В 2-4
{4}
4000 м дымка 9/9 600 м
[Sc]
+11.0 +9.7 92 +10 +10 1009.2 986.8 +12.2 3
18 18.04 ЮВ 2-4
{4}
4000 м слабый дождь 10/10 300 м
[Frnb Ns]
+9.7 +8.6 93 +8 +8 1006.4 983.9
21 18.04 ЮВ 2-4
{4}
4000 м слабый дождь 10/10 300 м
[Frnb Ns]
+8.7 +7.8 94 +7 +7 1003.2 980.7
00 19.04 Ю 2-2
{2}
4000 м дымка {дождь} 10/10 300 м
[St]
+8.1 +7.4 95 +6 +6 1001.1 978.6
03 19.04 Ю 2-2
{2}
4000 м дымка {ливн. осадки} 10/10 300 м
[St]
+6.0 +5.3 95 +3 +3 1000.2 977.5 +5.9 9
06 19.04 Ю 2-4
{4}
10 км {ливн. осадки} 10/10 300 м
[St]
+6.7 +4.9 88 +4 +4 999.3 976.8
09 19.04 Ю 4-4
{4}
20 км 10/10 300 м
[St]
+8.4 +4.3 75 +5 +5 999.4 977.0
12 19.04 штиль 0 20 км 10/10 300 м
[St]
+8.2 +4.8 79 +7 +7 1000.3 977.8
15 19.04 СВ 2-2
{2}
20 км 9/9 600 м
[Sc]
+8.5 +5.0 79 +7 +7 1000.7 978.2 +9.2
18 19.04 С 2-2
{2}
10 км 8/0
[Ac As]
+6.8 +5.0 88 +5 +5 1001.8 979.2
21 19.04 С 2-2
{2}
10 км 9/0
[Ac trans]
+6.4 +5.5 94 +4 +4 1002.3 979.6
00 20.04 С 2-4
{4}
10 км 9/0
[As op]
+6.4 +5.3 93 +4 +4 1002.6 979.9
03 20.04 СВ 4-6
{6}
10 км 10/10 300 м
[St]
+6.4 +5.2 92 +3 +3 1003.7 981.0 +6.3
06 20.04 С 4-6
{6}
10 км в посл. час морось 9/9 1000 м
[Sc]
+6.5 +3.7 82 +3 +3 1006.3 983.5
09 20.04 С 6-10
{10}
20 км 4/0
[Ci fib]
+11.0 +0.2 47 +8 +13 1007.6 985.2
12 20.04 С 4-8
{8}
20 км 8/8 1000 м
[Sc]
+11.9 -0.7 42 +10 +11 1008.7 986.4
15 20.04 С 4-6
{6}
20 км 3/3 1000 м
[Cu hum]
+10.6 -2.2 41 +9 +9 1009.2 986.8 +12.2 0.0
18 20.04 С 4-4
{4}
10 км 3/0
[Ci fib]
+5.3 -4.3 50 +2 +2 1011.2 988.2
21 20.04 С 2-4
{4}
10 км ясно +1.5 -5.1 61 -1 -1 1011.6 988.2
00 21.04 С 2-2
{2}
10 км ясно +1.0 -5.0 64 -2 -2 1011.2 987.8
03 21.04 Ю 2-2
{2}
20 км 8/0
[Ci fib]
+0.9 -5.1 64 -2 -2 1010.3 987.0 +0.4
06 21.04 Ю 2-4
{4}
20 км 9/0
[As op]
+6.6 -0.8 59 +5 +7 1008.1 985.3
09 21.04 Ю 2-4
{4}
20 км 10/10 1000 м
[Sc]
+9.2 -1.7 46 +8 +8 1003.5 981.0
12 21.04 Ю 4-6
{6}
20 км в посл. час дождь 9/0
[As op]
+8.0 +5.3 83 +5 +6 998.9 976.5
15 21.04 Ю 4-6
{6}
20 км 9/0
[Cs]
+11.9 +6.2 68 +10 +10 993.1 971.1 +12.2 1
18 21.04 Ю 6-8
{8}
10 км 8/0
[As op]
+12.4 +5.6 63 +10 +10 988.3 966.4
21 21.04 Ю 8-14
{14}
10 км слабый дождь 10/10 300 м
[Frnb Ns]
+10.1 +7.6 84 +6 +6 985.4 963.4
00 22.04 ЮЗ 6-10
{10}
10 км {дождь} 9/0
[As op]
+8.4 +5.8 84 +4 +4 984.5 962.4
03 22.04 З 6-10
{10}
20 км {дождь} 10/10 1000 м
[Sc]
+5.4 +2.7 83 0 0 985.4 963.0 +5.3 2
06 22.04 З 10-16
{16}
10 км слабый снег {дождь} 10/10 300 м
[Frnb Ns]
+1.5 -0.5 87 -6 -6 987.7 964.9 +1.4
09 22.04 СЗ 10-16
{16}
20 км 10/10 300 м
[St]
+1.6 -2.8 73 -6 -6 991.5 968.6
12 22.04 СЗ 10-14
{14}
20 км {снег} 10/10 300 м
[St]
+1.3 -2.9 74 -6 -6 995.6 972.6
15 22.04 СЗ 10-14
{14}
20 км 10/10 300 м
[St]
+1.1 -3.4 72 -6 -6 998.0 975.0 +5.6 0.0
18 22.04 З 6-12
{12}
10 км 9/0
[As op]
+0.4 -4.3 71 -6 -6 1000.7 977.5
21 22.04 СЗ 6-10
{10}
10 км 4/0
[Ci fib]
-1.1 -5.0 75 -8 -8 1002.3 979.8

 

Местоположение метеостанции Краснослободск (Мордовия, Россия): широта 54.43 долгота 43.77 высота над уровнем моря 188 м.

В архиве по умолчанию представлена погода в Краснослободске за последнюю неделю. Архивные данные за месяц целиком и за предыдущие месяцы, начиная с января 2011 года, Вы можете получить, выбрав интересующий диапазон дат из раскрывающегося списка и нажав кнопку "Ввод!".


*Определитесь, кто Вы:
робот инопланетянин человек

Внимание! Время в таблицах - всемирное. Для получения местного времени необходимо прибавить поправку, которая в Краснослободске равна 3 ч.

Смотрите также архив погоды в соседних городах и на ближайших метеорологических станциях:

Погода в Темникове (Мордовия, Россия) (41 км)
Погода в Торбеево (Мордовия, Россия) (52 км)
Погода в Инсаре (Мордовия, Россия) (74 км)
Погода в Лукоянове (Нижегородская область, Россия) (82 км)
Погода в Саранске (Мордовия, Россия) (102 км)
Погода в Арзамасе (Нижегородская область, Россия) (105 км)
Погода в Сасово (Рязанская область, Россия) (116 км)
Погода в Большом Болдино (Нижегородская область, Россия) (119 км)
Погода в Пачелме (Пензенская область, Россия) (126 км)
Погода в Земетчино (Пензенская область, Россия) (129 км)

Пояснения к столбцам:

Ветер - указаны скорость ветра в м/с - средняя за 10 мин, порывы в срок и между сроками (в фигурных скобках) и направление, откуда дует ветер: С - северный, СВ - северо-восточный, В - восточный, ЮВ - юго-восточный, Ю - южный, ЮЗ - юго-западный, З - западный, СЗ - северо-западный.
Видимость - горизонтальная дальность видимости в метрах или километрах. При видимости от 1 до 10 км при отсутствии осадков обычно наблюдается дымка, при ухудшении видимости до 1 км и менее - туман. В сухую погоду видимость может ухудшаться дымом, пылью или мглою.
Явления - указаны атмосферные явления, наблюдавшиеся в срок или в последний час перед сроком; фигурными скобками обозначены явления, наблюдавшиеся между сроками (за 1-3 часа до срока); квадратными скобками обозначены град или гололедные отложения с указанием их диаметра в мм.
Облачность - указаны через наклонную черту общая и нижняя облачность в баллах и высота нижней границы облаков в метрах; квадратными скобками обозначены формы облаков: Ci - перистые, Cs - перисто-слоистые, Cc - перисто-кучевые, Ac - высококучевые, As - высокослоистые, Sc - слоисто-кучевые, Ns - слоисто-дождевые, Cu - кучевые, Cb - кучево-дождевые. Подробнее классификацию облаков см. в Атласе облаков (PDF).
T - Температура воздуха - температура, измеренная на высоте 2 м над землей.
Td - Температура точки росы - температура, при понижении до которой содержащийся в воздухе водяной пар достигнет насыщения.
f - Относительная влажность воздуха - влажноcть воздуха, измеренная на высоте 2 м над землей.
Te - Эффективная температура - температура, которую ощущает одетый по сезону человек в тени. Характеристика душности погоды. При расчете учитывается влияние влажности воздуха и скорости ветра на теплоощущения человека.
Tes - Эффективная температура на солнце - температура, которую ощущает человек, с поправкой на солнечный нагрев. Характеристика знойности погоды. Зависит от высоты солнца над горизонтом, облачности и скорости ветра. Ночью, в пасмурную погоду, а также при ветре 12 м/с и более поправка равна нулю.
P - Атмосферное давление - приведенное к уровню моря атмосферное давление.
Po - Атмосферное давление - измеренное на уровне метеостанции атмосферное давление.
Tmin - Минимальная температура - минимум температуры воздуха на высоте 2 м над землей.
Tmax - Максимальная температура - максимум температуры воздуха на высоте 2 м над землей.
R - Количество осадков - Количество выпавших осадков за период времени, мм. При наведении курсора мыши на число - период времени, за который выпало указанное количество осадков.
R24 - Количество осадков - Количество выпавших осадков за 24 часа, мм.
S - Снежный покров - Высота снежного покрова, см. При наведении курсора мыши на число - состояние снежного покрова и степень покрытия местности в баллах.